Flag for U.S.A. Weather past 2 weeks in Wichita, Kansas, U.S.A.

Now
90 °F

Passing clouds.


Feels Like: 99 °F
Forecast: 75 / 97 °F
Wind: 10 mph from Southwest

Location: Wichita Mid-Continent Airport

Current Time: Jul 22, 2014 at 3:38:52 PM

Latest Report: Jul 22, 2014 at 11:53 AM


Visibility: 10 mi

Pressure: 30.02 "Hg

Humidity: 59%

Dew point: 74 °F

Location of WichitaLocation

Historic Weather in Wichita — Graph

°F

Wichita temperature yesterday

Maximum temperature yesterday: 95 °F (at 3:53 PM)
Minimum temperature yesterday: 72 °F (at 6:55 AM)
Average temperature yesterday: 83 °F

Past Weeks' High & Low Weather Summary

 TemperatureHumidityPressure
High98 °F (Jul 7, 3:53 PM)100% (Jul 10, 5:53 AM)30.18 "Hg (Jul 10, 5:53 AM)
Low56 °F (Jul 15, 5:53 AM)31% (Jul 7, 6:53 PM)29.70 "Hg (Jul 7, 8:53 PM)
Average76 °F68%29.98 "Hg
* Reported Jul 7 11:53 AM — Jul 22 11:53 AM, Wichita, Weather by CustomWeather, © 2014

Note: Actual official high and low records may vary slightly from our data, if they occured in-between our weather recording intervals... More about our weather records

Advertising

Wichita weather history for previous 24 hours

 ConditionsComfort  
Time TempWeatherWind HumidityBarometerVisibility
11:53 AM
Jul 22
90 °FPassing clouds.10 mph59%30.02 "Hg10 mi
10:53 AM88 °FPassing clouds.13 mph63%30.02 "Hg10 mi
9:53 AM85 °FPassing clouds.12 mph70%30.02 "Hg10 mi
8:53 AM81 °FPassing clouds.10 mph79%30.03 "Hg10 mi
7:53 AM77 °FFog.8 mph90%30.02 "Hg6 mi
6:53 AM75 °FFog.7 mph94%30.01 "Hg4 mi
5:53 AM76 °FFog.8 mph94%29.99 "Hg6 mi
4:53 AM76 °FFog.7 mph91%29.97 "Hg6 mi
3:53 AM77 °FFog.8 mph90%29.95 "Hg6 mi
2:53 AM79 °FPassing clouds.8 mph84%29.94 "Hg7 mi
1:53 AM80 °FOvercast.13 mph85%29.95 "Hg7 mi
12:53 AM81 °FOvercast.14 mph82%29.95 "Hg7 mi
11:53 PM
Jul 21
81 °FOvercast.13 mph82%29.96 "Hg7 mi
10:53 PM82 °FPassing clouds.12 mph79%29.96 "Hg7 mi
9:53 PM83 °FPassing clouds.10 mph74%29.95 "Hg8 mi
8:53 PM86 °FScattered clouds.13 mph65%29.91 "Hg9 mi
7:53 PM89 °FPassing clouds.14 mph57%29.91 "Hg10 mi
6:53 PM92 °FPassing clouds.16 mph52%29.89 "Hg10 mi
5:53 PM94 °FPassing clouds.16 mph44%29.89 "Hg10 mi
4:53 PM95 °FPassing clouds.18 mph44%29.90 "Hg10 mi
3:53 PM95 °FPassing clouds.20 mph46%29.90 "Hg10 mi
Weather by CustomWeather, © 2014

See weather overviewHow to use our weather pages